Date,TemperatureHighF,TemperatureAvgF,TemperatureLowF,DewpointHighF,DewpointAvgF,DewpointLowF,HumidityHigh,HumidityAvg,HumidityLow,PressureMaxIn,PressureMinIn,WindSpeedMaxMPH,WindSpeedAvgMPH,GustSpeedMaxMPH,PrecipitationSumIn
2013-3-1,63,61,58,58,52,48,84,71,59,29.98,29.90,11,7,17,0.00
2013-3-2,64,57,52,50,43,36,75,59,44,30.03,29.95,20,11,37,0.00
2013-3-3,60,54,50,47,42,39,86,67,50,30.14,29.96,15,9,43,0.00
2013-3-4,68,53,43,49,39,32,93,61,27,30.21,30.11,16,7,26,0.00
2013-3-5,75,62,49,57,53,47,96,74,47,30.18,30.07,52,6,73,0.00
2013-3-6,75,63,52,62,52,34,97,71,35,30.09,29.94,17,10,29,0.00
2013-3-7,70,57,46,56,45,37,96,65,40,30.18,30.07,59,7,62,0.00
2013-3-8,75,61,50,55,50,43,97,72,31,30.20,30.09,37,6,83,0.00
2013-3-9,74,63,53,58,54,51,97,75,50,30.18,30.09,48,7,55,0.00
2013-3-10,74,68,58,60,56,53,94,66,50,30.16,30.06,14,9,23,0.00
2013-3-11,76,70,65,62,60,58,91,69,53,30.11,29.95,40,8,104,0.00
2013-3-12,79,72,65,68,64,61,91,78,65,29.99,29.90,16,8,89,0.00
2013-3-13,73,65,56,65,55,45,95,72,40,30.11,29.97,54,9,101,0.00
2013-3-14,70,60,52,55,47,40,96,66,37,30.20,30.08,54,12,79,0.00
2013-3-15,72,60,50,55,49,45,88,69,42,30.24,30.14,32,7,48,0.00
2013-3-16,75,64,53,58,54,51,98,74,45,30.19,30.08,48,8,62,0.00
2013-3-17,76,66,57,62,59,57,98,78,53,30.14,30.02,43,8,57,0.00
2013-3-18,79,70,62,70,65,61,98,84,64,30.07,29.95,16,7,32,0.00
2013-3-19,78,71,67,69,67,65,97,86,65,30.00,29.82,19,6,50,0.00
2013-3-20,81,72,64,69,65,57,99,80,54,29.97,29.80,18,5,41,0.00
2013-3-21,72,66,58,62,54,43,96,69,35,29.94,29.83,39,10,63,0.00
2013-3-22,75,67,55,69,60,53,96,79,58,30.00,29.89,13,6,31,0.00
2013-3-23,87,77,69,73,70,67,98,81,52,29.98,29.79,14,6,23,0.00
2013-3-24,87,78,71,73,71,68,97,81,57,29.88,29.68,24,12,40,0.00
2013-3-25,75,72,64,73,61,45,97,72,41,29.98,29.74,15,8,25,0.00
2013-3-26,64,59,52,47,42,37,66,52,39,30.20,29.98,17,13,28,0.00
2013-3-27,67,56,45,50,42,37,90,61,38,30.25,30.16,14,8,21,0.00
2013-3-28,72,59,47,51,45,36,92,64,33,30.26,30.16,11,6,18,0.00
2013-3-29,73,62,51,55,50,46,91,66,43,30.28,30.19,11,7,21,0.00
2013-3-30,74,65,54,57,53,49,96,68,42,30.25,30.15,48,6,48,0.00
2013-3-31,80,69,56,65,60,-100,98,77,54,30.18,30.03,14,7,32,0.00